Find Apstar 7

NORAD ID: 38107 Int'l Des: 2012-013 Owner: APT Country: HK operational
HEOCIRCULARGSOGEO

Live Position

Loading 3D Globe...

About Apstar 7

Description loading...

Upcoming Passes

Passes for default location (London). Set your location on the main map for personalized predictions.

Altitude History

Loading altitude history...

Two-Line Element Set

1 38107U 12013A 26104.10270905 -.00000097 00000-0 00000+0 0 9999
2 38107 0.0382 82.6389 0002951 323.8051 269.3200 1.00271525 51167
Epoch: Apr 14, 2026 • Age: 19 hours

Current Status

Altitude 35797.7 km
Velocity 3.07 km/s
Sub-Earth Point 0.02°N, 76.49°E
Launch Date Mar 31, 2012
Age 14 years
Type other

Technical Details

Classification Payload
Mass 5054.00 kg
Dry Mass 2500.00 kg
Total Mass 5054.00 kg
Length 5.00 m
Diameter 2.50 m
Span 30.00 m
Shape Box + 2 Pan
Manufacturer THALES
Bus Type Spacebus 4000C2
Phase Status In Orbit
Owner/State APT/HK

Most Searched